GPS BIIF-1 (PRN 25) (36585 NORAD) Tracking and Keplerian Element Data

This shows tracking and keplerian element data for the satellite.

Feedback or suggestion? Click here.




ElementValue
Catalog36585
NameGPS BIIF-1 (PRN 25)
Epoch Orbit5955
Epoch Day196.95040772
Epoch Year2018
RAAN324.9885
Inclination55.7949
Eccentricity0.0072924
Argument of Perigee48.7454
Mean Anonmoly129.3413
Mean Motion2.00569987
Decay Rate-6.7E-07
L11 36585U 10022A 18196.95040772 -.00000067 00000-0 00000+0 0 9994
L22 36585 55.7949 324.9885 0072924 48.7454 129.3413 2.00569987 59556

Live tracking and technical data element details for GPS BIIF-1 (PRN 25) (NORAD 36585). GPS BIIF-1 (PRN 25) can be tracked NOW for your location showing map with azimuth and elevation plus other details from your city location.

Track the satellite on the map from your city or location and see movement details for azimuth, elevation, latitude, longitude, range, height, and movement on the map or in text.







IsCatalogInMostPopularTable: catalog: 36585, numindb: 44
Update: records affected: 1



GetName: 36585 GPS BIIF-1 (PRN 25)

Hit Count: updated at: Wed, 18 Jul 2018 20:32:38 GMT